Location: Chamerau
(49.1969°N, 12.7525°E)
Time: 08:57:31
(UTC+00:00)

Cosmos 1674 - Pass Details

Date: 18 September 2020
Orbit: 494 x 517 km, 82.5° (Epoch: 24 October)

Event Time Altitude Azimuth Distance (km) Brightness Sun altitude
Rises 19:02:16 0° 352° (N) 2,654 6.8 -17.8°
Reaches altitude 10° 19:04:26 10° 355° (N) 1,762 5.8 -18.1°
Maximum altitude 19:08:17 68° 79° (ENE) 564 2.6 -18.7°
Enters shadow 19:09:10 49° 141° (SE) 679 2.9 -18.8°
